This is the latest recevied weather packets stored in our database for station/object IZ8XTV-13. If no packets are shown the sender has not sent any weather packets the latest 10 day(s).
| Time | Temp. | Humidity | Pressure | Rain* | Wind** | Luminosity | Snow |
|---|---|---|---|---|---|---|---|
| 1778156800 | 25.56° C | 77% | 1013.3 hPa | 0 mm | - | - | - |
| 1778156189 | 25° C | 79% | 1013.2 hPa | 0 mm | - | - | - |
| 1778155577 | 25° C | 79% | 1013.3 hPa | 0 mm | - | - | - |
| 1778154966 | 24.44° C | 80% | 1013.4 hPa | 0 mm | - | - | - |
| 1778154355 | 24.44° C | 86% | 1013.5 hPa | 0 mm | - | - | - |
| 1778153745 | 25° C | 86% | 1013.6 hPa | 0 mm | - | - | - |
| 1778153132 | 24.44° C | 87% | 1013.8 hPa | 0 mm | - | - | - |
| 1778152520 | 25° C | 87% | 1013.9 hPa | 0 mm | - | - | - |
| 1778151907 | 25° C | 87% | 1013.9 hPa | 0 mm | - | - | - |
| 1778151294 | 25° C | 88% | 1014 hPa | 0 mm | - | - | - |
| 1778150683 | 24.44° C | 91% | 1014.2 hPa | 0 mm | - | - | - |
| 1778150072 | 23.89° C | 94% | 1014.2 hPa | 0 mm | - | - | - |
| 1778149461 | 23.33° C | 96% | 1013.9 hPa | 0 mm | - | - | - |
| 1778148850 | 23.33° C | 97% | 1014.1 hPa | 0 mm | - | - | - |
| 1778148239 | 22.78° C | 96% | 1014 hPa | 0 mm | - | - | - |
| 1778147625 | 22.78° C | 99% | 1014.2 hPa | 0 mm | - | - | - |
| 1778147014 | 22.22° C | 99% | 1014.1 hPa | 0 mm | - | - | - |
| 1778146401 | 22.22° C | 99% | 1014.2 hPa | 0 mm | - | - | - |
| 1778145789 | 21.67° C | 99% | 1014.1 hPa | 0 mm | - | - | - |
| 1778145177 | 21.11° C | 99% | 1014.2 hPa | 0 mm | - | - | - |
| 1778144565 | 21.11° C | 99% | 1014.3 hPa | 0 mm | - | - | - |
| 1778143953 | 20.56° C | 99% | 1014.3 hPa | 0 mm | - | - | - |
| 1778143341 | 20.56° C | 99% | 1014.3 hPa | 0 mm | - | - | - |
| 1778142730 | 21.67° C | 99% | 1014.5 hPa | 0 mm | - | - | - |
| 1778142118 | 20.56° C | 99% | 1014.6 hPa | 0 mm | - | - | - |
* Rain latest hour (hover to see other rain measurements)
** Current wind speed in m/s (hover to see current wind gust speed)